Location: Gandikunta
(16.3784°N, 80.8378°E)
Time: 05:32:37
(UTC+00:00)

CRYOSAT 2 - Pass Details

Date: 19 May 2025
Orbit: 717 x 722 km, 92.0° (Epoch: 13 June)

Event Time Altitude Azimuth Distance (km) Brightness Sun altitude
Exits shadow 14:51:45 71° 168° (SSE) 762 4.2 -24.6°
Maximum altitude 14:52:18 88° 85° (E) 725 4.2 -24.7°
Drops below altitude 10° 14:57:11 10° 355° (N) 2,205 7.3 -25.7°
Sets 14:59:28 0° 355° (N) 3,126 8.2 -26.2°
